Dewpoint
31 31 32 33 33 33 32 32 32 34 38 44 49 54 55 57 58 59 60 61 63 64 65 66 67 67 67 66 65 65 64 65 65 66 66 65 65 64 63 63 63 62 61 61 61 60 60 59 59 59 59 60 59 59 58 58 58 57 57 56 56 55 54 54 54 54 54 54 54 53 52 52 51 50 49 49 49 49 49 49 49 49 48 46 45 44 44 44 44 43 43 43 44 45 44 42 40 40 39 40 40 42 42
30 31 31 32 33 33 33 32 32 32 35 40 46 52 55 57 58 59 60 61 62 64 65 66 67 67 66 66 65 65 65 65 65 64 64 64 63 63 63 62 62 61 61 60 60 59 59 58 58 58 59 59 58 58 58 57 56 56 56 55 54 54 53 53 54 54 53 53 52 51 51 50 49 49 48 47 47 47 48 48 48 47 46 45 44 43 43 43 43 43 43 43 43 44 43 41 38 37 36 36 37 39 41
30 31 31 32 32 33 33 33 32 31 33 36 42 51 54 57 59 60 60 61 62 63 65 65 65 65 65 66 65 65 64 64 64 64 64 63 63 62 62 61 61 60 60 59 59 58 58 58 58 58 58 58 58 57 56 55 55 55 54 54 53 52 52 52 53 53 52 51 51 50 49 49 48 47 46 46 46 46 46 46 46 45 45 44 44 43 43 44 44 44 42 42 42 43 43 40 38 35 34 34 36 38 42
30 30 31 31 32 33 33 33 33 34 33 34 39 49 54 57 59 60 60 61 62 63 64 64 64 64 65 65 65 65 64 64 63 64 63 63 63 62 61 60 60 60 59 59 58 58 57 57 58 58 58 57 56 55 54 54 54 54 54 53 52 51 51 51 52 51 50 50 49 49 49 48 47 45 45 45 45 45 45 45 45 45 45 44 43 44 44 44 43 40 40 40 40 41 41 42 41 37 35 35 37 40 41
29 30 30 31 32 32 33 33 34 34 34 34 37 46 53 57 58 59 60 61 62 63 63 63 63 63 65 66 65 64 64 63 63 63 63 63 62 62 62 61 60 59 58 58 57 57 57 57 57 58 57 56 55 54 53 53 53 54 53 52 50 49 50 50 51 50 49 49 48 48 47 46 45 45 45 45 44 44 44 44 45 45 44 43 41 41 40 40 40 39 38 39 40 40 40 41 41 41 40 39 39 38 40
29 30 31 31 32 32 32 32 33 34 33 33 36 43 51 56 58 59 59 60 61 62 62 62 62 63 64 65 66 65 64 63 63 63 63 62 62 62 63 61 59 60 58 57 57 56 56 57 57 57 56 54 53 52 52 52 52 52 51 50 49 49 49 49 49 49 48 48 47 47 46 45 45 45 45 44 44 44 44 44 44 44 42 41 40 39 38 38 38 38 39 40 40 40 40 40 40 40 40 38 37 37 39
29 30 30 31 31 32 32 32 31 32 31 31 34 41 50 55 58 58 59 59 60 61 61 61 62 62 63 64 65 65 63 63 62 62 62 61 61 60 60 60 61 63 59 57 56 55 55 55 55 55 54 53 51 51 51 51 50 50 49 49 49 49 49 49 48 48 47 47 46 45 45 45 44 44 44 44 44 44 43 43 43 42 41 40 39 38 38 37 37 38 39 40 41 41 40 39 37 36 36 36 36 36 39
29 30 30 31 31 31 31 32 32 32 31 31 33 39 48 54 57 58 58 59 59 60 60 61 61 62 63 63 64 64 63 62 61 61 61 60 60 61 62 62 63 63 62 60 57 54 54 54 54 53 52 51 50 50 50 50 49 49 49 48 48 48 48 48 47 47 46 45 45 45 44 44 43 43 43 43 43 43 42 42 42 41 41 40 39 38 37 37 38 39 40 41 42 41 40 39 37 36 35 35 35 35 36
30 31 31 31 31 31 32 33 33 32 31 31 32 36 46 53 56 58 58 58 59 59 60 60 61 62 63 63 63 63 63 62 61 60 59 59 60 63 63 62 62 61 61 60 58 54 53 53 52 52 51 50 49 49 49 49 49 49 49 48 46 46 47 47 46 45 45 44 44 44 43 43 43 43 42 42 42 42 42 41 41 40 40 40 39 38 38 39 40 40 41 42 42 40 40 38 38 37 36 35 34 34 35
30 31 32 33 33 33 33 33 33 33 31 31 32 35 44 51 55 57 58 58 58 59 59 60 61 61 62 63 63 63 62 61 60 59 58 58 58 58 58 58 57 57 56 55 55 55 52 52 51 51 50 49 49 49 49 49 49 49 48 47 45 45 46 45 45 44 43 43 43 43 42 42 42 42 41 41 41 41 41 41 40 40 40 40 39 39 40 40 40 41 42 42 41 40 40 39 38 37 36 36 34 33 34
33 32 33 34 34 35 35 36 35 34 32 31 32 34 42 49 54 56 57 58 58 58 59 60 61 61 62 63 63 63 63 62 61 60 59 57 56 55 55 54 54 53 52 51 51 50 51 51 51 51 51 50 49 49 49 49 49 48 47 45 45 45 44 44 44 43 42 42 42 41 41 41 41 40 40 40 40 40 40 40 40 40 40 40 40 40 40 40 40 40 40 40 40 40 39 39 39 39 38 37 36 34 33
38 38 40 43 44 43 43 42 41 39 37 35 34 35 41 47 52 55 56 57 58 58 59 60 61 62 62 63 63 63 63 62 61 59 58 56 55 55 54 54 53 52 51 51 51 51 52 52 52 52 52 51 50 49 49 49 48 47 46 45 45 44 43 43 43 43 42 41 41 40 40 40 40 40 40 40 40 40 40 39 39 39 40 40 39 39 38 38 39 39 39 40 40 40 39 40 40 41 40 38 36 35 34
41 41 45 48 49 47 47 48 49 48 47 45 42 41 46 50 54 54 56 57 58 59 60 61 61 62 62 62 62 62 61 60 59 58 56 55 54 54 54 53 52 51 51 51 51 52 54 54 53 52 51 50 50 49 48 48 47 46 45 45 44 43 42 42 42 42 41 41 40 40 40 39 39 39 38 38 38 38 38 38 38 38 39 38 38 37 37 37 37 38 39 40 41 40 40 40 41 41 39 38 37 36 35
45 45 47 49 51 51 50 50 51 53 53 54 53 51 53 54 54 55 56 57 59 60 61 61 62 62 62 61 61 61 59 58 58 56 55 54 54 54 53 52 51 51 51 51 51 52 54 54 53 51 51 50 49 48 48 47 46 45 44 44 43 42 41 41 40 40 41 40 40 39 39 38 39 39 38 38 37 37 37 37 37 37 38 37 36 36 37 37 38 39 40 40 41 40 40 41 41 40 39 38 37 37 36
48 48 48 49 50 51 52 51 52 53 54 54 54 53 52 52 53 55 56 57 58 59 60 61 62 62 62 61 61 60 59 58 56 55 54 54 54 54 53 52 51 51 51 51 51 52 52 52 51 50 50 49 49 47 47 45 45 44 43 42 42 41 40 40 40 40 40 40 40 40 38 38 39 39 38 37 37 37 37 36 36 37 38 37 36 36 37 37 38 38 39 39 40 40 40 40 40 40 40 40 39 38 37
47 49 48 49 49 51 52 52 52 53 53 53 52 51 51 51 52 55 56 57 58 58 59 60 61 62 62 62 61 60 58 57 55 54 54 54 54 53 52 52 51 50 50 50 51 52 52 51 50 49 49 48 47 46 46 45 44 43 42 41 40 40 40 40 40 39 40 39 39 39 37 37 38 38 37 37 36 36 36 36 36 37 38 37 36 36 36 36 37 37 37 37 38 38 38 39 40 40 41 41 41 39 37
46 48 48 49 50 52 53 53 53 54 53 52 52 51 52 52 53 54 55 56 57 58 58 58 59 60 62 62 62 61 59 58 57 54 54 54 54 53 52 51 50 50 50 50 50 50 50 49 49 48 48 47 46 45 45 44 43 42 41 40 40 40 39 39 39 39 39 39 39 38 37 37 38 37 37 36 36 36 36 36 37 38 38 37 36 36 36 36 36 36 36 37 37 37 37 38 39 40 40 41 41 40 39
45 47 47 48 50 52 52 52 52 52 53 53 52 51 52 52 52 53 54 55 57 57 58 58 58 58 61 62 62 61 60 60 59 56 54 53 53 52 51 50 50 50 50 49 49 49 48 48 47 47 46 46 45 45 44 43 42 41 40 40 39 39 39 39 39 39 38 38 38 37 36 37 37 36 36 36 36 36 36 37 38 39 38 37 36 36 36 36 36 37 37 37 37 37 37 37 38 39 39 40 40 39 38
39 42 44 45 46 49 51 50 49 49 50 52 52 52 52 51 51 52 54 55 56 57 57 57 58 58 59 60 61 60 60 59 58 58 54 53 52 51 51 50 49 49 49 49 48 48 47 47 46 45 45 45 44 44 43 42 41 40 40 39 39 39 39 39 39 39 38 38 38 37 36 36 36 36 36 36 36 36 36 37 37 38 37 36 36 36 36 36 37 37 37 38 38 37 37 38 38 38 39 39 38 37 37
34 36 38 39 40 41 45 46 46 46 48 49 51 52 52 51 51 52 54 55 56 57 57 57 57 58 58 59 59 60 60 59 58 56 54 52 51 51 50 49 49 49 49 49 48 47 46 46 45 45 44 44 43 43 42 41 40 40 39 39 39 39 39 39 38 38 38 38 37 37 36 36 36 36 36 36 36 36 36 36 36 36 36 36 36 36 37 37 37 38 38 38 38 38 38 38 38 38 38 38 38 38 38
35 35 36 36 36 36 37 38 40 41 44 48 50 52 51 50 51 52 53 55 56 56 56 56 57 57 58 58 58 59 60 59 58 54 53 51 51 50 49 49 49 49 48 48 47 46 45 45 45 45 44 43 43 42 42 41 40 40 40 39 39 39 38 38 38 38 37 37 37 36 36 36 36 36 36 36 36 36 36 36 36 36 36 36 37 37 37 38 38 38 38 38 38 38 38 38 38 38 38 37 37 38 37
37 37 38 38 38 38 38 38 38 40 42 45 48 50 50 50 50 51 52 54 55 56 56 56 56 57 57 58 58 59 60 60 58 54 52 51 50 49 49 49 48 48 47 46 45 45 45 45 45 44 44 43 43 42 41 40 40 40 40 39 39 38 38 38 37 37 36 36 36 36 36 36 36 36 36 36 36 36 36 36 36 36 36 37 37 38 38 38 38 38 38 38 37 37 37 37 37 37 38 38 37 37 37
38 39 39 40 40 40 40 41 42 42 43 44 45 47 50 50 49 49 51 53 54 55 56 56 56 56 57 58 58 58 59 59 58 57 54 52 52 49 49 48 48 47 46 45 45 45 45 45 44 44 43 43 42 42 41 40 40 40 40 39 39 38 38 37 36 36 36 36 36 36 35 35 36 36 36 36 36 36 36 36 36 37 37 37 38 38 38 38 38 38 38 38 38 37 37 37 38 38 38 38 37 37 37
39 39 40 40 41 41 41 42 43 44 45 45 45 46 48 49 49 49 51 53 54 54 55 55 55 56 57 58 58 58 59 59 58 58 55 54 53 52 52 49 48 46 45 45 44 44 44 44 44 44 43 43 42 41 41 41 40 40 40 39 39 40 40 39 39 40 40 38 37 36 35 35 36 36 36 36 36 37 37 37 37 37 37 38 38 38 38 38 38 38 38 38 38 38 38 38 39 39 39 38 38 38 38
40 40 40 40 41 41 42 42 43 45 45 46 46 46 47 48 49 49 51 53 54 54 54 54 55 55 56 57 58 58 58 58 58 58 56 55 54 54 53 52 50 47 45 44 44 44 44 44 44 43 43 43 42 41 41 41 41 40 40 40 40 40 41 41 41 40 40 39 37 36 37 37 37 36 36 37 37 37 37 37 38 38 38 38 38 38 38 38 38 39 39 39 39 39 38 39 39 39 38 38 38 38 38
40 40 40 40 41 41 42 42 43 44 45 46 46 46 47 48 49 50 51 53 53 54 54 54 54 55 55 56 57 58 57 57 57 57 57 56 55 54 53 52 51 49 46 44 44 43 43 43 43 43 42 42 42 42 41 41 41 41 40 41 41 42 43 42 40 39 38 39 40 41 41 40 39 37 37 37 37 38 38 38 38 38 39 39 39 39 39 39 39 39 39 39 38 38 38 37 37 37 37 37 37 37 37
40 40 40 40 41 41 42 42 43 43 45 45 46 47 47 48 49 49 51 52 53 54 54 54 54 54 55 55 56 57 56 56 56 57 57 56 55 53 52 52 52 50 46 44 42 42 42 42 43 42 42 42 42 42 42 42 42 41 41 42 43 43 42 41 40 39 40 42 44 43 42 40 39 37 37 38 38 38 39 39 39 39 39 39 38 38 38 38 38 38 38 38 38 37 37 36 36 36 36 36 36 36 36
40 40 40 40 41 41 42 42 42 43 44 45 46 47 47 47 48 49 51 52 53 53 54 54 54 54 54 55 56 56 55 56 56 57 57 56 55 53 52 52 51 49 45 43 43 43 43 43 42 42 42 43 43 43 42 42 42 42 43 43 43 42 42 43 42 40 42 44 44 42 40 38 38 38 38 39 39 39 39 39 39 39 38 38 38 38 38 38 38 38 38 37 37 37 36 36 36 36 36 36 36 35 36
40 40 40 41 41 41 42 42 42 42 43 44 45 47 47 46 47 49 50 52 53 53 54 54 54 54 54 54 55 56 56 56 56 56 56 55 54 53 51 50 49 49 45 44 43 43 43 43 42 42 43 43 43 43 43 43 43 43 43 42 41 40 41 41 40 39 40 41 42 41 38 38 38 38 38 39 39 40 39 39 38 38 38 38 38 38 39 38 38 38 37 37 36 36 35 35 35 35 35 35 35 35 35
41 40 41 41 41 41 41 41 42 42 43 43 45 46 46 46 47 49 50 51 52 53 54 54 54 53 54 54 54 55 55 55 55 56 54 54 53 52 50 48 45 44 44 44 43 43 43 43 43 43 43 43 43 43 42 42 42 42 41 40 40 39 39 39 39 39 40 40 40 39 38 37 38 38 38 39 40 40 38 37 37 37 37 37 38 39 39 38 37 37 37 36 36 35 35 34 35 35 35 35 35 35 35
41 41 41 41 41 41 41 41 41 42 42 43 44 45 46 47 48 49 49 51 52 53 54 54 54 54 54 54 54 54 54 54 54 54 52 50 49 49 47 45 44 44 45 44 44 43 43 43 44 43 43 43 42 42 42 41 41 40 40 39 39 38 38 38 39 38 39 38 38 37 37 37 38 38 38 39 40 38 37 36 36 36 36 37 38 39 37 36 36 36 36 36 35 34 34 34 34 34 34 34 34 34 34
40 41 41 42 41 41 41 41 41 41 42 42 43 45 45 47 48 49 49 50 51 53 54 54 54 54 54 54 53 53 53 53 53 51 49 47 46 46 45 44 45 46 46 45 44 43 43 43 43 43 42 42 41 40 40 40 40 39 39 39 38 38 38 38 38 37 37 37 37 37 37 37 37 38 38 38 37 36 36 35 35 36 36 36 36 36 36 36 36 36 36 35 35 34 34 33 33 33 34 33 33 33 33
40 41 41 41 41 40 40 40 41 41 41 42 43 45 46 47 48 49 49 50 51 52 53 53 54 54 54 54 53 52 52 51 49 47 45 45 44 44 44 45 46 46 45 45 44 43 42 42 42 41 40 40 40 39 39 39 39 39 38 38 38 38 38 37 37 37 37 37 37 37 37 37 37 36 36 36 36 36 35 35 35 35 35 35 34 34 35 35 35 36 36 35 35 35 34 33 32 32 33 32 32 32 32
40 41 42 41 40 40 40 40 40 41 41 42 43 44 45 46 47 48 49 50 51 52 52 53 53 53 53 52 51 50 49 48 46 44 42 42 42 42 43 44 44 45 44 44 43 43 42 41 40 40 39 39 39 38 38 38 38 38 38 37 37 37 37 37 36 37 37 37 37 36 36 36 36 36 36 35 35 35 35 35 34 34 34 33 33 33 34 34 34 35 34 34 34 33 33 32 32 31 31 31 31 31 31
41 42 41 41 40 40 40 40 40 40 41 42 43 44 45 46 48 49 49 50 51 52 52 53 52 53 52 50 49 49 48 46 45 42 41 41 41 42 41 42 42 43 43 43 43 43 41 40 39 39 38 38 38 38 38 38 37 37 37 37 37 37 36 37 37 37 37 36 36 36 36 36 36 35 35 35 35 35 34 33 33 33 32 32 32 32 33 33 33 33 32 32 32 31 31 31 31 31 31 31 31 31 31
41 41 41 40 40 40 40 40 40 40 40 41 42 44 45 46 48 49 49 50 51 52 53 53 52 51 49 48 47 46 45 44 43 43 42 41 40 41 40 41 41 41 42 41 41 42 41 40 40 40 39 38 37 37 37 37 37 37 37 37 37 37 37 37 37 37 36 36 36 36 36 35 35 34 34 33 33 32 32 32 32 31 31 31 31 31 32 32 32 32 31 31 31 31 31 31 31 31 31 31 31 31 31
40 40 40 40 40 39 40 40 40 40 40 41 42 45 46 47 48 49 50 51 52 52 52 52 50 48 46 45 44 44 43 43 43 42 41 40 40 40 40 40 40 40 40 40 40 40 40 40 40 41 40 38 37 37 37 38 38 38 38 38 38 38 38 38 37 37 36 36 35 35 34 34 33 33 32 32 32 31 31 31 31 31 31 31 31 31 31 31 31 31 31 31 31 31 31 31 31 31 31 31 30 30 30
39 40 40 40 39 39 40 40 40 40 40 41 43 45 47 48 49 50 51 51 51 51 49 48 45 44 42 42 42 42 42 41 40 40 40 39 39 39 40 40 40 40 40 40 40 40 40 40 40 40 40 40 39 38 38 38 39 39 39 39 38 38 38 37 36 36 36 35 34 34 33 33 32 32 32 31 31 31 31 31 31 31 31 31 31 31 32 32 31 31 31 31 31 31 31 31 31 31 31 31 30 30 30
39 39 39 39 39 39 39 40 40 40 40 42 44 46 47 48 49 49 49 49 49 47 45 43 42 41 40 40 40 41 40 40 39 38 39 39 40 40 40 40 40 39 39 39 39 40 40 40 40 40 41 41 40 40 40 40 40 40 40 39 39 38 37 36 36 36 35 34 34 33 32 32 32 31 31 31 31 31 31 31 31 31 31 31 31 31 31 32 32 32 32 32 32 32 32 31 31 31 31 31 30 30 30
37 38 39 39 39 39 39 40 40 40 40 41 44 45 46 46 46 46 46 46 45 44 42 40 40 40 39 39 39 39 38 38 38 38 38 39 40 40 40 40 40 40 40 40 40 40 40 40 40 40 41 41 41 41 41 41 40 40 40 39 38 38 36 36 35 35 34 33 33 32 32 32 31 31 31 31 31 31 31 31 31 30 31 31 31 31 31 31 32 32 33 33 33 33 33 32 32 32 32 32 32 32 32
36 37 38 38 38 38 39 39 39 39 40 40 41 43 43 43 43 43 43 42 42 41 40 40 39 39 38 38 38 39 38 38 38 38 38 39 40 40 40 40 41 41 41 40 40 40 40 40 41 41 41 41 41 40 40 40 40 40 39 38 37 37 36 35 35 34 33 33 33 32 32 32 32 32 32 32 31 31 31 31 30 30 30 30 30 31 31 31 32 32 33 34 34 34 33 33 33 34 34 34 34 34 34
36 36 36 37 37 37 38 38 39 39 39 40 40 40 40 40 40 40 40 40 40 40 40 39 38 38 37 37 38 39 39 39 39 39 40 40 40 41 41 41 41 41 41 41 41 41 41 41 41 41 41 40 40 40 40 40 40 39 39 38 37 36 36 35 34 33 33 34 34 34 33 33 33 33 33 33 32 31 31 31 30 30 30 31 31 31 31 32 32 32 33 33 33 33 32 32 31 32 32 32 32 32 33
34 35 35 35 36 36 37 38 39 39 40 40 40 39 39 39 39 39 40 40 40 40 39 38 37 37 37 37 38 38 39 40 40 40 40 41 41 41 41 41 41 41 41 41 41 41 41 41 40 40 40 40 40 39 39 39 39 38 38 37 36 36 36 35 34 33 34 34 34 34 33 33 33 34 33 33 32 32 31 31 31 31 31 31 32 32 32 32 31 31 31 32 31 31 31 30 30 30 30 30 30 30 30
33 34 34 34 35 36 36 38 39 40 40 40 40 40 39 39 39 39 39 39 39 39 38 38 37 37 37 38 38 39 39 40 40 41 41 41 41 41 41 41 41 41 41 41 41 41 40 40 40 40 40 39 39 39 38 38 38 37 37 36 36 36 35 35 34 34 34 34 34 34 33 33 33 33 33 33 33 33 32 32 32 32 32 32 32 31 31 31 30 30 30 31 31 31 31 31 30 30 30 30 29 29 29
34 35 35 35 35 36 36 38 39 40 40 40 40 40 40 40 39 39 39 39 39 39 39 38 38 37 38 38 39 39 40 40 40 41 41 41 41 41 41 41 41 40 40 40 40 40 40 40 39 39 39 39 38 38 38 37 37 37 36 36 36 35 35 35 34 34 34 34 33 33 33 33 33 33 33 33 33 33 33 33 32 32 31 31 30 29 29 29 29 29 29 29 30 30 30 30 29 29 29 28 29 29 29
36 37 37 36 36 37 37 38 39 40 40 40 40 40 40 40 40 40 40 39 39 39 39 39 38 38 39 40 40 40 40 40 40 40 41 41 41 41 40 40 40 40 40 40 40 39 39 39 39 38 38 38 38 37 37 36 36 36 36 36 36 35 35 34 34 34 33 33 33 33 33 33 33 33 33 33 33 32 32 32 31 31 30 29 29 28 27 27 28 28 28 28 28 28 28 28 28 28 27 27 27 28 28
37 38 39 38 37 37 38 38 39 39 40 40 40 40 40 40 40 40 40 40 40 39 40 40 39 40 40 41 41 40 40 40 40 40 40 40 40 40 40 40 40 40 39 39 39 39 38 38 38 38 37 37 37 37 36 36 36 36 36 36 35 35 34 34 33 33 33 33 33 33 33 33 33 32 32 32 32 32 32 31 31 30 30 30 30 29 28 28 27 27 27 27 27 27 27 27 27 27 27 27 27 27 27
36 37 38 38 38 37 38 38 39 39 40 40 40 40 40 40 40 40 40 40 40 40 40 40 40 41 41 41 41 41 41 41 41 41 40 40 40 40 40 39 39 39 39 38 38 38 38 37 37 37 37 37 36 36 36 36 36 36 35 35 35 34 34 33 33 33 33 33 33 33 33 32 32 32 32 32 32 32 32 32 31 31 31 31 30 30 29 29 28 28 28 27 27 27 27 27 27 28 27 27 26 26 26
35 36 38 38 38 38 38 38 38 38 39 39 40 40 40 40 40 40 40 41 41 41 41 41 41 42 42 42 42 41 41 41 41 40 40 40 40 39 39 38 38 38 38 38 38 38 37 37 37 37 36 36 36 36 36 36 35 35 35 35 34 34 34 33 33 33 33 33 33 33 33 32 32 32 32 33 33 33 33 33 32 32 31 31 30 29 30 30 29 28 28 27 27 27 27 27 28 29 28 27 27 27 27
36 36 37 38 39 38 38 38 38 38 38 38 39 39 40 40 40 40 40 40 41 41 41 41 41 41 41 42 41 41 41 40 40 40 39 39 38 38 38 37 37 37 37 37 37 37 37 36 36 36 36 36 36 35 35 35 35 34 34 34 34 34 34 34 33 33 33 33 33 33 33 33 33 33 33 33 33 33 33 32 32 32 31 31 31 31 31 31 30 29 29 27 27 27 27 27 27 28 27 27 27 27 27
36 36 37 38 38 39 38 38 38 38 38 38 38 38 38 39 39 40 40 40 40 40 40 41 41 41 41 41 41 40 40 40 39 38 38 37 37 37 37 37 37 37 36 36 36 36 36 36 36 36 35 35 35 35 35 34 34 34 34 34 34 34 34 34 33 33 33 33 33 33 33 33 33 33 33 33 33 32 32 31 31 31 31 31 31 31 31 31 30 30 30 29 28 27 27 27 27 27 27 27 27 27 27
36 37 37 38 38 38 38 38 38 38 38 37 37 37 37 37 38 39 39 40 40 40 40 40 40 40 40 40 40 40 39 39 38 37 37 36 36 36 36 36 36 36 36 36 36 36 36 36 36 35 35 35 35 35 34 34 34 34 34 34 34 33 33 33 33 33 33 33 33 33 33 33 33 33 33 33 32 31 31 31 30 30 30 30 31 31 30 30 29 29 29 28 28 28 27 27 27 27 27 27 27 27 27
36 37 37 37 37 37 37 37 37 37 37 37 37 37 36 36 36 37 38 39 39 39 40 40 40 40 40 40 40 39 39 38 37 37 36 36 36 36 36 36 36 36 36 36 36 36 35 35 35 35 35 35 34 34 34 34 34 34 34 34 33 33 33 33 33 33 33 33 33 32 32 33 33 32 32 31 31 31 30 30 30 30 31 30 30 30 30 29 29 28 28 28 28 29 27 27 27 28 28 28 28 28 28
35 36 36 36 36 36 36 36 36 36 37 37 37 36 36 36 36 36 37 37 38 38 39 39 39 40 40 40 40 39 38 37 37 36 36 36 36 36 36 36 36 36 36 36 35 35 35 35 35 35 35 34 34 34 34 34 34 34 34 33 33 33 33 33 33 33 33 32 32 32 32 32 32 31 31 31 31 30 30 30 30 30 30 30 30 30 29 29 28 28 27 27 27 28 27 27 28 27 27 27 28 28 29
34 34 35 35 34 34 34 35 35 35 35 35 35 35 36 36 36 36 36 36 36 37 38 39 39 40 40 40 39 38 38 37 36 36 36 36 36 36 36 36 36 36 36 35 35 35 35 35 35 35 35 35 35 35 34 34 34 34 33 33 33 32 32 32 32 32 31 31 31 31 31 31 31 31 31 31 30 30 30 30 30 29 29 30 29 29 28 28 28 27 27 27 27 28 27 28 28 27 27 26 26 27 29
33 33 33 33 33 32 32 33 33 33 33 33 33 34 35 35 36 35 35 35 36 37 38 39 40 40 39 39 38 38 37 36 36 36 36 36 36 36 36 36 36 36 36 35 35 35 35 35 35 35 35 35 35 35 34 34 33 33 33 33 32 32 31 31 31 31 30 30 31 31 31 31 30 30 30 30 30 29 29 29 28 28 28 29 29 28 28 27 27 27 27 27 27 27 27 27 28 28 28 28 29 30 31
33 32 32 32 32 32 32 32 32 32 33 33 33 33 34 34 34 34 35 36 37 38 39 39 39 39 38 38 37 37 36 36 36 36 36 36 36 36 36 36 36 36 35 35 35 35 34 34 34 35 35 35 34 34 34 33 33 33 32 32 31 31 31 30 29 29 29 30 30 30 30 30 30 30 29 29 29 28 28 28 28 27 27 28 28 27 27 27 27 27 27 27 27 27 27 27 28 28 29 29 30 31 31
32 32 32 32 32 32 32 32 32 32 32 32 33 33 33 33 33 34 35 36 37 39 39 39 39 38 38 37 37 36 36 36 36 36 36 35 35 35 36 36 36 36 35 35 35 34 34 34 34 35 34 34 34 34 33 33 32 32 31 31 31 30 30 29 29 28 29 29 29 30 30 30 30 30 29 29 28 28 28 28 28 28 28 28 28 27 27 27 27 27 27 26 26 26 27 27 27 27 27 28 28 28 28
32 32 32 32 32 32 32 32 32 32 32 32 33 33 33 33 33 34 34 36 36 38 38 38 38 38 37 37 37 36 36 36 36 36 35 35 35 35 35 35 35 35 35 35 35 34 34 34 34 34 34 34 34 33 32 32 31 31 30 30 30 30 29 29 29 28 28 28 29 29 30 30 30 30 30 29 29 28 28 27 27 27 28 28 27 27 28 28 28 27 27 26 26 26 27 27 26 25 24 24 25 25 25